Weather History for Sussex, NJ

Change the Weather History Date:

Sunday, February 2, 2014

  Actual Average Record
Temperature  
Mean Temperature 34 °F -  
Max Temperature 43 °F 37 °F 64 °F (1989)
Min Temperature 25 °F 15 °F -12 °F (1971)
Degree Days  
Heating Degree Days 31    
Moisture  
Dew Point 30 °F    
Average Humidity 80    
Maximum Humidity 96    
Minimum Humidity 65    
Precipitation  
Precipitation 0.00 in - - ()
Sea Level Pressure  
Sea Level Pressure 29.99 in    
Wind  
Wind Speed 2 mph (WSW)    
Max Wind Speed 8 mph    
Max Gust Speed -    
Visibility 9 miles    
Events Rain    
Averages and records for this station are not official NWS values.
T = Trace of Precipitation, MM = Missing Value Source: NWS Daily Summary

Daily Weather History Graph

Daily Weather History Graph

Search for Another Location

Airport:

Trip Planner

Search our weather history database for the weather conditions in past years. The results will help you decide how hot, cold, wet, or windy it might be!

Date:

Astronomy

Feb. 02, 2014 Rise Set
Actual Time 7:08 AM EST 5:16 PM EST
Civil Twilight 6:39 AM EST 5:45 PM EST
Nautical Twilight 6:06 AM EST 6:18 PM EST
Astronomical Twilight 5:34 AM EST 6:50 PM EST
Moon 8:31 AM EST (2/2) 9:00 PM EST (2/2)
Length of Visible Light 11h 06m
Length of Day
10h 07m
Waxing Crescent, 11% of the Moon is Illuminated
Feb 2
Waxing Crescent
Feb 6
First Quarter
Feb 14
Full
Feb 22
Last Quarter
Mar 1
New

Hourly Weather History & Observations

Time (EST) Temp. Windchill Dew Point Humidity Pressure Visibility Wind Dir Wind Speed Gust Speed Precip Events Conditions
12:27 AM 32.0 °F - 28.0 °F 85% 29.99 in 10.0 mi Calm Calm - N/A   Partly Cloudy
12:53 AM 30.0 °F - 26.1 °F 85% 29.99 in 10.0 mi Calm Calm - N/A   Clear
1:53 AM 28.0 °F - 26.1 °F 92% 29.96 in 7.0 mi Calm Calm - N/A   Clear
2:53 AM 28.0 °F - 25.0 °F 88% 29.94 in 8.0 mi Calm Calm - N/A   Clear
3:53 AM 25.0 °F - 24.1 °F 96% 29.94 in 8.0 mi Calm Calm - N/A   Clear
4:53 AM 25.0 °F - 24.1 °F 96% 29.93 in 7.0 mi Calm Calm - N/A   Clear
5:53 AM 25.0 °F - 23.0 °F 92% 29.92 in 7.0 mi Calm Calm - N/A   Clear
6:53 AM 25.0 °F 20.7 °F 23.0 °F 92% 29.93 in 7.0 mi SSW 3.5 mph - N/A   Clear
7:53 AM 28.0 °F - 26.1 °F 92% 29.94 in 5.0 mi Calm Calm - N/A   Clear
8:53 AM 33.1 °F - 30.0 °F 89% 29.95 in 6.0 mi Calm Calm - N/A   Partly Cloudy
9:53 AM 37.9 °F 33.5 °F 32.0 °F 79% 29.94 in 9.0 mi SW 5.8 mph - N/A   Overcast
10:53 AM 41.0 °F 35.8 °F 30.9 °F 67% 29.97 in 10.0 mi SSW 8.1 mph - 0.00 in   Overcast
11:53 AM 41.0 °F 36.4 °F 30.9 °F 67% 29.96 in 10.0 mi SW 6.9 mph - N/A   Overcast
12:53 PM 42.1 °F 39.2 °F 30.9 °F 65% 29.95 in 9.0 mi SSW 4.6 mph - 0.00 in Rain Light Rain
1:53 PM 43.0 °F 41.3 °F 34.0 °F 71% 29.94 in 8.0 mi SSW 3.5 mph - 0.00 in Rain Light Rain
2:53 PM 43.0 °F 41.3 °F 36.0 °F 76% 29.93 in 9.0 mi SE 3.5 mph - 0.00 in   Overcast
3:53 PM 42.1 °F - 36.0 °F 79% 29.96 in 9.0 mi Calm Calm - N/A   Overcast
4:24 PM 41.0 °F 38.0 °F 36.0 °F 82% 29.96 in 9.0 mi North 4.6 mph - N/A   Overcast
4:53 PM 39.9 °F - 35.1 °F 83% 29.99 in 9.0 mi Calm Calm - N/A   Overcast
5:03 PM 42.1 °F - 36.0 °F 79% 29.98 in 9.0 mi Calm Calm - N/A   Overcast
5:22 PM 41.0 °F 39.0 °F 35.1 °F 79% 29.98 in 10.0 mi North 3.5 mph - N/A   Overcast
5:53 PM 41.0 °F 38.0 °F 35.1 °F 79% 30.01 in 10.0 mi NE 4.6 mph - N/A   Overcast
6:53 PM 39.9 °F - 34.0 °F 79% 30.06 in 10.0 mi Calm Calm - N/A   Overcast
7:26 PM 39.9 °F - 33.1 °F 77% 30.07 in 10.0 mi Calm Calm - N/A   Overcast
7:53 PM 39.0 °F - 33.1 °F 79% 30.06 in 10.0 mi Calm Calm - N/A   Overcast
8:53 PM 39.0 °F 35.7 °F 30.9 °F 73% 30.08 in 10.0 mi North 4.6 mph - N/A   Overcast
9:53 PM 39.0 °F 35.7 °F 30.0 °F 70% 30.09 in 10.0 mi Variable 4.6 mph - N/A   Overcast
10:53 PM 37.9 °F 33.5 °F 28.9 °F 70% 30.10 in 10.0 mi NNW 5.8 mph - N/A   Overcast
11:53 PM 37.0 °F - 28.9 °F 73% 30.11 in 10.0 mi Calm Calm - N/A   Overcast